• In Hungary
  • List of Countries
  • For 7 days
  • Water Temperature
  • Satellite Maps
  • Weather Map
  • News
  • Weather Widgets
  • user-avatar
    Login

    Hourly Weather Mihaylova Buda

    Today, 27 May, Sunday

    Time Temperature Precipitation Wind Pressure Humidity
    00:00 +10°C° 0 mm 2 mps 756 mmHg 84%
    01:00 +10°C° 0 mm 2 mps 756 mmHg 87%
    02:00 +9°C° 0 mm 2 mps 755 mmHg 90%
    03:00 +9°C° 0 mm 2 mps 755 mmHg 90%
    04:00 +9°C° 0 mm 2 mps 755 mmHg 89%
    05:00 +9°C° 0 mm 2 mps 755 mmHg 88%
    06:00 +12°C° 0 mm 2 mps 755 mmHg 83%
    07:00 +14°C° 0 mm 2 mps 755 mmHg 77%
    08:00 +16°C° 0 mm 2 mps 755 mmHg 71%
    09:00 +17°C° 0 mm 2 mps 755 mmHg 67%
    10:00 +19°C° 0 mm 2 mps 754 mmHg 62%
    11:00 +20°C° 0 mm 2 mps 754 mmHg 57%
    12:00 +20°C° 0 mm 2 mps 754 mmHg 56%
    13:00 +21°C° 0 mm 2 mps 754 mmHg 55%
    14:00 +21°C° 0 mm 2 mps 753 mmHg 54%
    15:00 +21°C° 0 mm 2 mps 753 mmHg 56%
    16:00 +21°C° 0 mm 2 mps 753 mmHg 59%
    17:00 +21°C° 0 mm 2 mps 752 mmHg 61%
    18:00 +19°C° 0 mm 2 mps 752 mmHg 67%
    19:00 +19°C° 0 mm 1 mps 752 mmHg 73%
    20:00 +16°C° 0 mm 1 mps 752 mmHg 79%
    21:00 +15°C° 0 mm 1 mps 752 mmHg 80%
    22:00 +15°C° 0 mm 1 mps 752 mmHg 82%
    23:00 +14°C° 0 mm 1 mps 752 mmHg 83%

    Tomorrow, 28 May, Monday

    Time Temperature Precipitation Wind Pressure Humidity
    00:00 +14°C° 0 mm 1 mps 752 mmHg 84%
    01:00 +13°C° 0 mm 2 mps 752 mmHg 84%
    02:00 +13°C° 0 mm 2 mps 753 mmHg 85%
    03:00 +13°C° 0 mm 2 mps 753 mmHg 86%
    04:00 +14°C° 0 mm 2 mps 753 mmHg 86%
    05:00 +14°C° 0 mm 1 mps 753 mmHg 87%
    06:00 +15°C° 0 mm 2 mps 753 mmHg 83%
    07:00 +17°C° 0 mm 2 mps 754 mmHg 79%
    08:00 +19°C° 0 mm 2 mps 754 mmHg 75%
    09:00 +20°C° 0 mm 3 mps 754 mmHg 71%
    10:00 +21°C° 0 mm 3 mps 754 mmHg 68%
    11:00 +22°C° 0 mm 4 mps 754 mmHg 65%
    12:00 +22°C° 0.1 mm 4 mps 754 mmHg 62%
    13:00 +23°C° 0.1 mm 4 mps 754 mmHg 59%
    14:00 +23°C° 0.1 mm 4 mps 754 mmHg 56%
    15:00 +22°C° 0 mm 4 mps 754 mmHg 58%
    16:00 +22°C° 0 mm 4 mps 754 mmHg 59%
    17:00 +22°C° 0 mm 3 mps 754 mmHg 61%
    18:00 +19°C° 0 mm 3 mps 754 mmHg 65%
    19:00 +17°C° 0 mm 3 mps 755 mmHg 68%
    20:00 +14°C° 0 mm 3 mps 755 mmHg 72%
    21:00 +13°C° 0 mm 3 mps 755 mmHg 72%
    22:00 +12°C° 0 mm 3 mps 755 mmHg 72%
    23:00 +11°C° 0 mm 3 mps 756 mmHg 72%

    Day after tomorrow, 29 May, Tuesday

    Time Temperature Precipitation Wind Pressure Humidity
    00:00 +10°C° 0 mm 3 mps 756 mmHg 74%
    01:00 +10°C° 0 mm 2 mps 756 mmHg 75%
    02:00 +9°C° 0 mm 2 mps 756 mmHg 77%
    03:00 +9°C° 0 mm 2 mps 756 mmHg 79%
    04:00 +9°C° 0 mm 2 mps 756 mmHg 80%
    05:00 +9°C° 0 mm 2 mps 756 mmHg 82%
    06:00 +12°C° 0 mm 2 mps 756 mmHg 76%
    07:00 +14°C° 0 mm 2 mps 756 mmHg 71%
    08:00 +16°C° 0 mm 2 mps 756 mmHg 66%
    09:00 +18°C° 0 mm 2 mps 755 mmHg 61%
    10:00 +19°C° 0 mm 2 mps 755 mmHg 56%
    11:00 +20°C° 0 mm 2 mps 755 mmHg 51%
    12:00 +21°C° 0 mm 2 mps 754 mmHg 50%
    13:00 +21°C° 0 mm 2 mps 754 mmHg 49%
    14:00 +23°C° 0 mm 2 mps 754 mmHg 48%
    15:00 +23°C° 0 mm 2 mps 753 mmHg 52%
    16:00 +23°C° 0 mm 2 mps 752 mmHg 55%
    17:00 +23°C° 0 mm 2 mps 752 mmHg 58%
    18:00 +20°C° 0 mm 2 mps 752 mmHg 63%
    19:00 +18°C° 0 mm 2 mps 751 mmHg 69%
    20:00 +16°C° 0 mm 2 mps 751 mmHg 74%
    21:00 +15°C° 0 mm 2 mps 751 mmHg 75%
    22:00 +15°C° 0 mm 2 mps 750 mmHg 77%
    23:00 +14°C° 0 mm 2 mps 750 mmHg 78%

    30 May, Wednesday

    Time Temperature Precipitation Wind Pressure Humidity
    00:00 +14°C° 0 mm 2 mps 750 mmHg 79%
    01:00 +13°C° 0 mm 2 mps 750 mmHg 80%
    02:00 +13°C° 0 mm 2 mps 750 mmHg 82%
    03:00 +13°C° 0 mm 2 mps 749 mmHg 83%
    04:00 +13°C° 0 mm 2 mps 749 mmHg 84%
    05:00 +13°C° 0 mm 3 mps 749 mmHg 85%
    06:00 +14°C° 0 mm 3 mps 748 mmHg 82%
    07:00 +17°C° 0 mm 3 mps 748 mmHg 79%
    08:00 +19°C° 0 mm 3 mps 748 mmHg 76%
    09:00 +21°C° 0 mm 4 mps 747 mmHg 73%
    10:00 +23°C° 0 mm 4 mps 747 mmHg 69%
    11:00 +25°C° 0 mm 4 mps 747 mmHg 66%
    12:00 +26°C° 0.1 mm 4 mps 746 mmHg 65%
    13:00 +26°C° 0.1 mm 5 mps 746 mmHg 63%
    14:00 +27°C° 0.1 mm 5 mps 745 mmHg 62%
    15:00 +27°C° 0.2 mm 5 mps 745 mmHg 65%
    16:00 +26°C° 0.2 mm 4 mps 744 mmHg 67%
    17:00 +26°C° 0.2 mm 4 mps 744 mmHg 70%
    18:00 +23°C° 0.1 mm 4 mps 743 mmHg 75%
    19:00 +22°C° 0.1 mm 3 mps 743 mmHg 80%
    20:00 +20°C° 0.1 mm 3 mps 743 mmHg 85%
    21:00 +19°C° 0 mm 3 mps 743 mmHg 87%
    22:00 +19°C° 0 mm 3 mps 742 mmHg 89%
    23:00 +18°C° 0 mm 3 mps 742 mmHg 91%

    31 May, Thursday

    Time Temperature Precipitation Wind Pressure Humidity
    00:00 +17°C° 0 mm 3 mps 742 mmHg 92%
    01:00 +17°C° 0 mm 3 mps 742 mmHg 93%
    02:00 +16°C° 0 mm 3 mps 741 mmHg 94%
    03:00 +16°C° 0 mm 3 mps 741 mmHg 93%
    04:00 +16°C° 0 mm 3 mps 741 mmHg 93%
    05:00 +16°C° 0 mm 3 mps 741 mmHg 92%
    06:00 +17°C° 0 mm 3 mps 741 mmHg 85%
    07:00 +17°C° 0 mm 4 mps 741 mmHg 77%
    08:00 +18°C° 0 mm 4 mps 741 mmHg 69%
    09:00 +19°C° 0 mm 5 mps 741 mmHg 64%
    10:00 +19°C° 0 mm 5 mps 742 mmHg 60%
    11:00 +20°C° 0 mm 5 mps 742 mmHg 55%
    12:00 +20°C° 0 mm 5 mps 742 mmHg 53%
    13:00 +20°C° 0 mm 5 mps 742 mmHg 52%
    14:00 +20°C° 0 mm 5 mps 742 mmHg 50%
    15:00 +20°C° 0 mm 4 mps 742 mmHg 53%
    16:00 +19°C° 0 mm 4 mps 742 mmHg 56%
    17:00 +19°C° 0 mm 4 mps 742 mmHg 60%
    18:00 +17°C° 0 mm 4 mps 742 mmHg 64%
    19:00 +15°C° 0 mm 4 mps 742 mmHg 68%
    20:00 +13°C° 0 mm 4 mps 742 mmHg 72%
    21:00 +12°C° 0 mm 4 mps 743 mmHg 73%
    22:00 +11°C° 0 mm 3 mps 743 mmHg 74%
    23:00 +10°C° 0 mm 3 mps 743 mmHg 75%

    1 June, Friday

    Time Temperature Precipitation Wind Pressure Humidity
    00:00 +9°C° 0 mm 3 mps 743 mmHg 74%
    01:00 +9°C° 0 mm 3 mps 743 mmHg 74%
    02:00 +8°C° 0 mm 3 mps 744 mmHg 74%
    03:00 +8°C° 0 mm 3 mps 744 mmHg 74%
    04:00 +8°C° 0 mm 3 mps 744 mmHg 75%
    05:00 +8°C° 0 mm 3 mps 744 mmHg 75%
    06:00 +9°C° 0 mm 3 mps 744 mmHg 70%
    07:00 +10°C° 0 mm 4 mps 745 mmHg 66%
    08:00 +11°C° 0 mm 4 mps 745 mmHg 62%
    09:00 +12°C° 0 mm 4 mps 745 mmHg 58%
    10:00 +13°C° 0 mm 4 mps 745 mmHg 54%
    11:00 +14°C° 0 mm 4 mps 745 mmHg 49%
    12:00 +14°C° 0 mm 4 mps 745 mmHg 50%
    13:00 +14°C° 0 mm 4 mps 745 mmHg 50%
    14:00 +14°C° 0 mm 5 mps 745 mmHg 50%
    15:00 +14°C° 0 mm 5 mps 745 mmHg 52%
    16:00 +13°C° 0 mm 5 mps 745 mmHg 53%
    17:00 +13°C° 0 mm 5 mps 745 mmHg 55%
    18:00 +11°C° 0 mm 4 mps 746 mmHg 59%
    19:00 +10°C° 0 mm 3 mps 746 mmHg 63%
    20:00 +8°C° 0 mm 3 mps 746 mmHg 67%
    21:00 +7°C° 0 mm 3 mps 746 mmHg 68%
    22:00 +6°C° 0 mm 2 mps 747 mmHg 68%
    23:00 +5°C° 0 mm 2 mps 747 mmHg 69%
    Show more